Regional Weather Roundup
Issued by NWS Jackson, KY

Home | Current Version | Previous Version | Text Only | Print | Product List | Glossary On
Versions: 1 2 3 4 5 6 7 8 9 10 11 12 13 14 15 16 17 18 19 20 21 22 23 24 25 26 27 28
000
ASUS43 KJKL 300610
RWRJKL

EAST KENTUCKY HOURLY WEATHER ROUNDUP
NATIONAL WEATHER SERVICE JACKSON KY
200 AM EDT SUN APR 30 2017

NOTE: "FAIR" INDICATES FEW OR NO CLOUDS BELOW 12,000 FEET WITH
NO SIGNIFICANT WEATHER AND/OR OBSTRUCTIONS TO VISIBILITY.

* THESE REPORTS ARE NOT UNDER NWS QUALITY CONTROL AND MAY NOT
  REPORT WEATHER SUCH AS PRECIPITATION AND FOG.

KYZ079-080-083-085-087-088-110-112-115-119-120-300700
...EASTERN KENTUCKY...

CITY           SKY/WX    TMP DP  RH WIND       PRES   REMARKS
JACKSON        PTCLDY    71  63  75 CALM      30.04F
6HR MIN TEMP:  71; 6HR MAX TEMP:  83;

LONDON         MOCLDY    74  61  63 S6        30.03F
6HR MIN TEMP:  69; 6HR MAX TEMP:  83;

SOMERSET*      MOCLDY    72  61  68 CALM      30.03S
MONTICELLO*    PTCLDY    75  65  70 VRB7      30.03S
6HR MIN TEMP:  75; 6HR MAX TEMP:  82;

WILLIAMSBURG*  MOCLDY    73  63  68 SE6       30.04S
MIDDLESBORO*   CLEAR     72  62  69 CALM      30.06F
6HR MIN TEMP:  70; 6HR MAX TEMP:  85;

HARLAN APT*    CLOUDY    72  59  64 CALM      30.07F
PIKE CO APT*     N/A     70  69  97 S6        30.06F
MOREHEAD APT*  CLOUDY    72  64  78 S5        30.01F
$$

KYZ035-036-041-042-044-050-067-078-099-300700
...CENTRAL KENTUCKY...

CITY           SKY/WX    TMP DP  RH WIND       PRES   REMARKS
MT STERLING*   CLEAR     72  63  73 SW9       30.00F
FLEMING/MASON* PTCLDY    72  65  79 S7        29.99S
DANVILLE*      PTCLDY    72  63  73 S6        29.99F
LEXINGTON      CLEAR     75  62  64 S14       29.97F
6HR MIN TEMP:  74; 6HR MAX TEMP:  80;

FRANKFORT      MOCLDY    74  63  68 S6        29.95S
6HR MIN TEMP:  74; 6HR MAX TEMP:  77;

LOUISVILLE     CLEAR     77  64  64 S15       29.90F
6HR MIN TEMP:  76; 6HR MAX TEMP:  84;

LEBANON*         N/A     75  64  69 S15G23    29.97S
GLASGOW*       CLEAR     71  63  75 S8        29.96F
BOWLING GREEN  CLEAR     72  66  81 SE7       29.93F
6HR MIN TEMP:  72; 6HR MAX TEMP:  85;

$$

KYZ091>093-OHZ055-061-077-WVZ005-015-034-035-042-300700
...SOUTHERN OHIO/WEST VIRGINIA...

CITY           SKY/WX    TMP DP  RH WIND       PRES   REMARKS
COVINGTON      CLOUDY    73  65  75 W9        29.95R
COLUMBUS       CLOUDY    57  56  96 E12       30.00F
DAYTON         CLOUDY    53  53 100 N20G28    30.01R
WILMINGTON     LGT RAIN  60  60 100 VRB5      29.97F FOG
HUNTINGTON     CLOUDY    75  61  61 S9        29.99R
CHARLESTON     CLOUDY    69  65  86 SE3       30.01F
PINEVILLE*     FOG       63  62  97 MISG      30.16S VSB 1/2
BECKLEY        PTCLDY    70  61  73 S8        30.14F
BLUEFIELD      CLOUDY    69  60  73 S12G21    30.18S
LOGAN CO APT*    N/A     73  63  68 VRB6G13   30.06F
$$

VAZ002-007-008-TNZ017-027-036-066-071-300700
...SOUTHWEST VIRGINIA/EAST TENNESSEE...

CITY           SKY/WX    TMP DP  RH WIND       PRES   REMARKS
WISE*          CLOUDY    72  59  64 S9        30.15F
JONESVILLE*      N/A    N/A N/A N/A CALM      30.09F
ABINGDON*      MOCLDY    72  60  66 CALM      30.14F
BRISTOL        PTCLDY    71  63  75 CALM      30.10F
MORRISTOWN*    PTCLDY    70  63  78 CALM      30.06F
SEVIERVILLE*   CLEAR     68  61  77 SW3       30.04F
KNOXVILLE      PTCLDY    75  62  64 S10       30.03F
LAFOLLETTE*    CLEAR     70  64  83 CALM      30.07F
OAK RIDGE      MOCLDY    72  64  76 CALM      30.05F
CROSSVILLE     CLEAR     69  64  84 VRB3      30.08S
NASHVILLE      PTCLDY    75  64  68 S9        29.96F
$$

...KEY TO REMARKS...
VSB - VISIBILITY IN MILES
WCI - WIND CHILL INDEX
HX  - HEAT INDEX

$$




USA.gov is the U.S. government's official web portal to all federal, state and local government web resources and services.